Find Starlink 33814

NORAD ID: 63582 Int'l Des: 2025-076 Owner: SPXS Country: US Constellation: starlink operational
LEOCIRCULAR

Live Position

Loading 3D Globe...

About Starlink 33814

Description loading...

Upcoming Passes

Passes for default location (London). Set your location on the main map for personalized predictions.

Altitude History

Loading altitude history...

Two-Line Element Set

1 63582U 25076P 26126.68904372 .00014373 00000-0 53115-3 0 9996
2 63582 43.0033 353.8872 0001346 273.4667 86.6031 15.27558108 60703
Epoch: May 6, 2026 • Age: 15 hours

Current Status

Altitude 486.8 km
Velocity 7.63 km/s
Sub-Earth Point 41.60°N, 127.37°E
Launch Date Apr 14, 2025
Age 1 years
Type internet

Technical Details

Classification Payload
Mass 575.00 kg
Dry Mass 530.00 kg
Total Mass 575.00 kg
Length 0.30 m
Diameter 4.10 m
Span 29.00 m
Shape Box + pan
Manufacturer SPXS
Bus Type Starlink V2MO
Phase Status In Orbit
Owner/State SPXS/US

Most Searched